TimeCET,TemperatureF,Dew PointF,Humidity,Sea Level PressureIn,VisibilityMPH,Wind Direction,Wind SpeedMPH,Gust SpeedMPH,PrecipitationIn,Events,Conditions,WindDirDegrees,DateUTC
12:00 AM,42.8,41.0,93,30.24,2.2,Calm,Calm,-,N/A,,Mist,0,2012-11-21 23:00:00
12:30 AM,44.6,41.0,87,30.24,3.1,Variable,3.5,-,N/A,,Mist,0,2012-11-21 23:30:00
1:00 AM,44.6,42.8,93,30.24,3.1,Variable,2.3,-,N/A,,Mist,0,2012-11-22 00:00:00
1:30 AM,44.6,42.8,93,30.24,3.1,East,5.8,-,N/A,,Mist,80,2012-11-22 00:30:00
2:00 AM,44.6,42.8,93,30.24,3.1,ENE,8.1,-,N/A,,Mist,70,2012-11-22 01:00:00
2:30 AM,44.6,42.8,93,30.24,3.1,East,6.9,-,N/A,,Mist,90,2012-11-22 01:30:00
3:00 AM,44.6,42.8,93,30.24,3.1,East,4.6,-,N/A,,Mist,90,2012-11-22 02:00:00
3:30 AM,42.8,42.8,100,30.24,3.1,Variable,2.3,-,N/A,,Mist,0,2012-11-22 02:30:00
4:00 AM,42.8,42.8,100,30.24,3.1,Variable,2.3,-,N/A,,Mist,0,2012-11-22 03:00:00
4:30 AM,42.8,42.8,100,30.24,3.1,ESE,5.8,-,N/A,,Mist,120,2012-11-22 03:30:00
5:00 AM,42.8,42.8,100,30.24,3.1,ESE,4.6,-,N/A,,Mist,110,2012-11-22 04:00:00
5:30 AM,42.8,41.0,93,30.27,3.1,Variable,3.5,-,N/A,,Mist,0,2012-11-22 04:30:00
6:00 AM,42.8,41.0,93,30.27,3.1,ESE,4.6,-,N/A,,Mist,110,2012-11-22 05:00:00
6:30 AM,41.0,41.0,100,30.27,3.7,Variable,2.3,-,N/A,,Unknown,0,2012-11-22 05:30:00
7:00 AM,41.0,41.0,100,30.27,3.1,ESE,4.6,-,N/A,,Mist,110,2012-11-22 06:00:00
7:30 AM,42.8,41.0,93,30.30,2.8,ESE,4.6,-,N/A,,Mostly Cloudy,120,2012-11-22 06:30:00
8:00 AM,42.8,41.0,93,30.30,2.8,Variable,2.3,-,N/A,,Mostly Cloudy,0,2012-11-22 07:00:00
8:30 AM,42.8,41.0,93,30.30,3.1,SE,5.8,-,N/A,,Overcast,140,2012-11-22 07:30:00
9:00 AM,42.8,41.0,93,30.30,3.1,SE,6.9,-,N/A,,Overcast,140,2012-11-22 08:00:00
9:30 AM,42.8,41.0,93,30.30,3.7,SSE,4.6,-,N/A,,Overcast,150,2012-11-22 08:30:00
10:00 AM,44.6,41.0,87,30.30,3.7,Variable,1.2,-,N/A,,Overcast,0,2012-11-22 09:00:00
10:30 AM,44.6,41.0,87,30.30,3.7,Variable,2.3,-,N/A,,Overcast,0,2012-11-22 09:30:00
11:00 AM,44.6,41.0,87,30.30,3.7,Calm,Calm,-,N/A,,Overcast,0,2012-11-22 10:00:00
11:30 AM,44.6,41.0,87,30.30,3.7,Variable,1.2,-,N/A,,Overcast,0,2012-11-22 10:30:00
12:00 PM,46.4,41.0,81,30.30,3.7,Calm,Calm,-,N/A,,Overcast,0,2012-11-22 11:00:00
12:30 PM,46.4,41.0,81,30.30,3.7,Calm,Calm,-,N/A,,Overcast,0,2012-11-22 11:30:00
1:00 PM,46.4,41.0,81,30.30,4.3,Variable,1.2,-,N/A,,Overcast,0,2012-11-22 12:00:00
1:30 PM,46.4,41.0,81,30.30,4.3,Variable,2.3,-,N/A,,Mostly Cloudy,0,2012-11-22 12:30:00
2:00 PM,46.4,41.0,81,30.30,4.3,Variable,2.3,-,N/A,,Overcast,0,2012-11-22 13:00:00
2:30 PM,46.4,42.8,87,30.27,4.3,Variable,3.5,-,N/A,,Overcast,0,2012-11-22 13:30:00
3:00 PM,46.4,41.0,81,30.30,4.3,Variable,2.3,-,N/A,,Overcast,0,2012-11-22 14:00:00
3:30 PM,46.4,42.8,87,30.30,3.7,Variable,3.5,-,N/A,,Overcast,0,2012-11-22 14:30:00
4:00 PM,46.4,42.8,87,30.30,3.7,East,5.8,-,N/A,,Overcast,90,2012-11-22 15:00:00
4:30 PM,46.4,42.8,87,30.30,3.7,East,5.8,-,N/A,,Overcast,100,2012-11-22 15:30:00
5:00 PM,46.4,42.8,87,30.30,3.7,Variable,3.5,-,N/A,,Overcast,0,2012-11-22 16:00:00
5:30 PM,46.4,42.8,87,30.30,3.7,Variable,3.5,-,N/A,,Overcast,0,2012-11-22 16:30:00
6:00 PM,46.4,42.8,87,30.30,3.7,ENE,4.6,-,N/A,,Overcast,70,2012-11-22 17:00:00
6:30 PM,46.4,42.8,87,30.30,3.7,East,4.6,-,N/A,,Mostly Cloudy,90,2012-11-22 17:30:00
7:00 PM,46.4,42.8,87,30.30,3.7,East,5.8,-,N/A,,Mostly Cloudy,100,2012-11-22 18:00:00
7:30 PM,46.4,42.8,87,30.30,3.7,East,5.8,-,N/A,,Mostly Cloudy,90,2012-11-22 18:30:00
8:00 PM,44.6,42.8,93,30.30,3.7,East,5.8,-,N/A,,Mostly Cloudy,80,2012-11-22 19:00:00
8:30 PM,44.6,42.8,93,30.30,3.7,Variable,3.5,-,N/A,,Mostly Cloudy,0,2012-11-22 19:30:00
9:00 PM,44.6,42.8,93,30.30,3.7,East,5.8,-,N/A,,Mostly Cloudy,100,2012-11-22 20:00:00
9:30 PM,44.6,42.8,93,30.30,3.7,East,5.8,-,N/A,,Mostly Cloudy,100,2012-11-22 20:30:00
10:00 PM,44.6,42.8,93,30.30,3.1,East,4.6,-,N/A,,Mostly Cloudy,100,2012-11-22 21:00:00
10:30 PM,44.6,42.8,93,30.30,2.8,Variable,2.3,-,N/A,,Light Drizzle,0,2012-11-22 21:30:00
11:00 PM,44.6,44.6,100,30.30,2.5,Variable,3.5,-,N/A,Rain,Light Rain,0,2012-11-22 22:00:00
11:30 PM,44.6,44.6,100,30.30,2.2,East,4.6,-,N/A,Rain,Light Rain,90,2012-11-22 22:30:00